Regional Weather Roundup
Issued by NWS

Home | Current Version | Previous Version | Graphics & Text | Print | Product List | Glossary On
Versions: 1 2 3 4 5 6 7 8 9 10 11 12 13 14 15 16 17 18 19 20 21 22 23 24 25 26 27 28 29 30 31 32 33 34 35 36 37 38 39 40 41 42 43 44 45 46 47 48 49 50
000
ASUS43 KDTX 260501
RWRMI
MICHIGAN HOURLY REGIONAL WEATHER ROUNDUP
NATIONAL WEATHER SERVICE DETROIT/PONTIAC MI
100 AM EDT WED APR 26 2017

NOTE: "FAIR" INDICATES FEW OR NO CLOUDS BELOW 12,000 FEET WITH NO
SIGNIFICANT WEATHER AND/OR OBSTRUCTION TO VISIBILITY.

MIZ047>049-052>055-059>063-066>070-074>076-081>083-260600-
SOUTHEAST LOWER MICHIGAN

CITY           SKY/WX    TMP DP  RH WIND       PRES   REMARKS
ADRIAN         CLEAR     53  51  93 E5        29.72S
ALMA           CLOUDY    61  54  78 S8        29.70S
ANN ARBOR      CLOUDY    56  52  86 NE5       29.72F
BAD AXE        CLOUDY    54  51  89 SE7       29.75F
CARO           CLOUDY    58  53  81 SE9       29.73S
DETROIT CITY   PTCLDY    54  50  86 E6        29.74F
DETROIT        MOCLDY    56  50  80 E6        29.74F
FLINT          CLOUDY    58  51  78 SE8       29.72F
GROSSE ILE     PTCLDY    54  50  85 E3        29.72F
HILLSDALE      CLEAR     55  52  88 E8        29.70S
HOWELL         PTCLDY    58  51  77 SE10      29.71F

CITY           SKY/WX    TMP DP  RH WIND       PRES   REMARKS
JACKSON        CLEAR     57  51  80 SE9       29.70F
LAMBERTVILLE   CLOUDY    52  50  94 CALM      29.71F
LANSING        PTCLDY    61  51  70 SE9       29.70S
LAPEER         FAIR      57  51  80 SE13      29.75S
MASON          PTCLDY    59  53  80 SE12      29.71S
MONROE         CLOUDY    55  51  89 E6        29.71F
MT. CLEMENS    CLOUDY    53  53 100 CALM      29.74S
PONTIAC        PTCLDY    55  50  83 E6        29.73F
PORT HOPE        N/A     53  50  89 S12G21    29.74F
PORT HURON     CLEAR     55  50  82 SE5       29.76S
TRI CITIES     CLOUDY    60  54  80 SE9       29.71F
MIDLAND        CLOUDY    63  52  67 SE6       29.71S
TROY           PTCLDY    56  50  82 E3        29.77S
SAGINAW HB     CLOUDY    59  50  72 SE7       29.72S
$$
MIZ043>046-050>051-056>058-064>065-071>073-077>080-260600-
SOUTHWEST LOWER MICHIGAN

CITY           SKY/WX    TMP DP  RH WIND       PRES   REMARKS
BATTLE CREEK   CLOUDY    61  53  75 SE12      29.66F
BENTON HARBOR  CLOUDY    66  54  65 SE8       29.62F
BIG RAPIDS     CLOUDY    61  53  74 CALM      29.68S
COLDWATER      CLEAR     57  53  85 SE8       29.68S
FREMONT        FAIR      64  52  65 E8        29.63F
HOLLAND        CLOUDY    65  55  70 SE10      29.62F
GRAND RAPIDS   CLOUDY    63  55  75 SE13      29.65F
IONIA          FAIR      61  53  74 SE10      29.67S
KALAMAZOO      CLOUDY    63  51  65 SE7       29.66F
LUDINGTON      PTCLDY    60  55  81 E7        29.61F
MARSHALL       CLEAR     58  54  85 E6        29.68F
MOUNT PLEASANT MOCLDY    61  53  74 SE6       29.69S
MUSKEGON       CLOUDY    66  55  67 E9        29.62F
SOUTH HAVEN    CLOUDY    65  55  69 E5        29.62F
$$
MIZ016>042-260600-
NORTHERN LOWER MICHIGAN

CITY           SKY/WX    TMP DP  RH WIND       PRES   REMARKS
ALPENA         FOG       45  45 100 E6        29.76F VSB 3/4
BEAVER ISLAND  CLOUDY    43  42  95 E9        29.70F
BELLAIRE       CLOUDY    61  52  70 CALM      29.68F
CADILLAC       CLOUDY    60  53  77 E10       29.69S
CHARLEVOIX     CLOUDY    58  49  71 E7        29.71F
FRANKFORT      CLOUDY    61  51  70 CALM      29.65S
GAYLORD        CLOUDY    59  50  72 SE9       29.71F
GRAYLING       CLOUDY    58  52  82 E7        29.72F
HARBOR SPRINGS CLOUDY    50  46  88 E7        29.71F
HOUGHTON LAKE  CLOUDY    59  52  77 E8        29.71F
MANISTEE       CLOUDY    62  54  74 E8        29.63F
OSCODA         CLOUDY    48  47  94 W5        29.74F FOG
PELLSTON       CLOUDY    47  43  86 NE3       29.73F
ROGERS CITY    CLOUDY    44  43  96 E3        29.77S FOG
TRAVERSE CITY  MOCLDY    54  46  74 W5        29.66S
$$
MIZ007>008-015-260600-
EASTERN UPPER MICHIGAN

CITY           SKY/WX    TMP DP  RH WIND       PRES   REMARKS
KINROSS        LGT RAIN  46  46 100 E12       29.75F VSB 1/2
MACKINAC ISLAN SNOW      42  42 100 E18G28    29.74F VSB 1/4
NEWBERRY       LGT RAIN  48  47  97 E7        29.72S
S. S. MARIE    FOG       50  48  93 E8        29.75F VSB 1
MUNISING         N/A     53  48  83 S7        29.68S
$$
MIZ004>006-011>014-085-260600-
CENTRAL UPPER MICHIGAN

CITY           SKY/WX    TMP DP  RH WIND       PRES   REMARKS
MANISTIQUE     LGT RAIN  47  46  97 E9        29.69F
ESCANABA       CLOUDY    47  44  90 N3        29.68F
MENOMINEE      CLOUDY    49  43  80 E7        29.64F
SAWYER-GWINN   LGT RAIN  49  46  88 CALM      29.68F
$$
MIZ001>003-009>011-084-260600-
WESTERN UPPER MICHIGAN

CITY           SKY/WX    TMP DP  RH WIND       PRES   REMARKS
IRON MOUNTAIN  CLOUDY    51  47  86 VRB3      29.63F
HOUGHTON       LGT RAIN  36  31  82 N5        29.74R WCI  32
COPPER HARBOR    N/A     37  33  85 E13       29.78R WCI  29
IRONWOOD       LGT RAIN  33  32  96 NE8G17    29.72F WCI  26
$$

ABBREVIATIONS USED IN REMARKS
   TC - TEMPERATURE IN CELSIUS
  WCI - WIND CHILL INDEX
   HX - HEAT INDEX
  VSB - VISIBILITY




USA.gov is the U.S. government's official web portal to all federal, state and local government web resources and services.